Regional Weather Roundup
Issued by NWS Kansas City/Pleasant Hill, MO

Home | Current Version | Previous Version | Graphics & Text | Print | Product List | Glossary Off
Versions: 1 2 3 4 5 6 7 8 9 10 11 12 13 14 15 16 17 18 19 20 21 22 23 24 25 26 27 28 29 30 31 32 33 34 35 36 37 38 39 40 41 42 43 44 45 46 47 48 49 50

000
ASUS43 KEAX 040510
RWREAX

WEATHER ROUNDUP FOR EASTERN KANSAS AND NORTHWEST MISSOURI
NATIONAL WEATHER SERVICE KANSAS CITY/PLEASANT HILL MO
1200 AM CDT TUE AUG 04 2015

KSZ040-057-103>105-MOZ028-029-037-043-040600-
...KANSAS CITY METROPOLITAN AREA...

CITY           SKY/WX    TMP DP  RH WIND       PRES   REMARKS
K.C. INTL      PTCLDY    75  68  78 E9        29.95S
K.C. DOWNTOWN  PTCLDY    78  69  73 E6        29.93S
LEES SUMMIT    PTCLDY    75  68  78 E6        29.95S
OLATHE - IXD   PTCLDY    77  71  82 E7        29.95S
OLATHE - OJC   PTCLDY    76  70  82 E3        29.94S
LAWRENCE       CLEAR     76  69  79 E6        29.93S

$$

MOZ001>008-011>017-020>025-030>033-038>040-044>046-053-054-040600-
...NORTHERN AND CENTRAL MISSOURI...

CITY           SKY/WX    TMP DP  RH WIND       PRES   REMARKS
ST. JOSEPH     PTCLDY    75  68  78 E6        29.94F
MOSBY          PTCLDY    73  66  78 CALM      29.95
WARRENSBURG    MOCLDY    73  70  88 NE3       29.94S
WHITEMAN AFB   PTCLDY    76  71  84 E5        29.94R
CLINTON        PTCLDY    79  73  83 CALM      29.94
SEDALIA        MOCLDY    77  71  82 E3        29.96S
WARSAW         NOT AVBL
CHILLICOTHE      N/A     75  68  78 NE3       29.97S
KIRKSVILLE     MOCLDY    69  64  84 N5        29.98S

$$

MOZ041-047>049-056>058-063>065-088>090-097-040600-
...EASTERN AND SOUTHERN MISSOURI...

CITY           SKY/WX    TMP DP  RH WIND       PRES   REMARKS
ST. LOUIS INTL MOCLDY    81  67  62 N6        29.96R
SPIRIT OF STL  PTCLDY    75  73  93 CALM      29.94R
COLUMBIA       PTCLDY    75  70  84 NE6       29.96S
JEFFERSON CITY PTCLDY    75  71  87 CALM      29.94R
ROLLA          PTCLDY    77  70  79 CALM      29.95F
OSAGE BEACH    PTCLDY    75  72  88 S3        29.96S
SPRINGFIELD    PTCLDY    76  66  71 S5        29.97S
BRANSON        CLEAR     75  68  78 CALM      29.99S
JOPLIN         CLEAR     73  65  75 CALM      29.95F
WEST PLAINS    PTCLDY    74  69  85 CALM      29.99F

$$

IAZ060-094-KSZ022-034>040-054-083-096-NEZ052-066-093-040600-
...KANSAS...SOUTHEAST NEBRASKA AND IOWA...

CITY           SKY/WX    TMP DP  RH WIND       PRES   REMARKS
TOPEKA         CLEAR     76  71  85 CALM      29.92F
MANHATTAN      MOCLDY    78  74  87 NE6       29.92R
EMPORIA        PTCLDY    75  68  78 S9        29.94R
CHANUTE        PTCLDY    73  67  81 S7        29.94F
WICHITA        MOCLDY    78  69  73 S6        29.95R
OMAHA          CLOUDY    74  64  71 E6        29.97S
LINCOLN        PTCLDY    72  63  73 NE6       29.97F
FALLS CITY     CLEAR     71  69  93 E3        29.94S
LAMONI         CLOUDY    70  66  87 NE5       29.98S
DES MOINES     PTCLDY    71  58  63 S3        29.97R

$$



USA.gov is the U.S. government's official web portal to all federal, state and local government web resources and services.